Ana Sayfa
METAR-TAF:

METAR-TAF

Havaalanları :

Francis S. Gabreski Airport

Westhampton Beach, New York, Amerika Birleşik Devletleri

Enlem: 40-51-03N, Boylam: 072-37-14W, yükseklik: 20 m

Güncel hava durumu gözlemi

Rapor saat 07:53 UTC de 54 dakika önce yapıldı.
Sakin rüzgar
Sıcaklık -9°C
Nem 85%
Basınç 1023 hPa
Görüş mesafesi: 16.1 km
Açık gökyüzü

METAR: KFOK 230753Z AUTO 00000KT 10SM CLR M09/M11 A3020 RMK AO2 SLP227 T10891111 $

Saat: 03:47 (08:47 UTC)


TAF: eksik

4.000'den fazla havaalanı için hava durumu gözlemleri ve tahminleri (METAR ve TAF raporları).

Kullanılabilir istasyonlar harita üzerinde sarı ve kırmızı noktalarla gösterilir.

İstasyonun adını görmek için fareyi noktanın üzerinde gezdirin.

Sonrasında hava gözlem ve tahminlerini görmek için tıklayın.

Haritayı değiştirmek için: yaklaştırmak için siyah artı işaretli yeşil düğmeye ve uzaklaştırmak için de eksi işaretli düğmeye hızla tıklayın; bitişik haritalar için yeşil okları kullanın.


METAR-TAF: